Тетри-Цкаро

Грузия     41°32′38″N   44°27′44″E
В апреле 2022 года жителям России запретили посещать сайт meteo.paraplan.net по решению Генеральной прокуратуры. Аудитория сайта уменьшилась в 10 раз. Владельцы сайта не видят смысла в поддержке погодного сервера в таких условиях. Сайт будет закрыт в октябре.
темп.,
°C
ветер,
м/с
пор.,
м/с
влажн.,
%
обл.,
%
осадки,
мм/ч
давл.,
гПа
погр.,
м
4 октября, вт
вт401:00+14ссз116999 0.0 101411
04:00+13ссз11768 0.0 101611
07:00+15зсз0174100 0.0 101735
10:00+16в127594 0.1 1018421
13:00+18всв347786 0.1 1018688
16:00+22в33535 0.1 10161061
19:00+17всв117216 0.0 101711
22:00+16сз22771 0.0 101815
5 октября, ср
ср501:00+15сз12790 0.0 101913
04:00+14зсз22825 0.0 102016
07:00+14сз22820 0.0 102013
10:00+21в21540 0.0 1019490
13:00+27вюв42315 0.0 10171020
16:00+28вюв552722 0.0 10161305
19:00+21ссв1143100 0.0 101711
22:00+18сз2259100 0.0 101929
6 октября, чт
чт601:00+16ссз2270100 0.0 102022
04:00+15сз117485 0.0 102113
07:00+14ссз11815 0.0 102211
10:00+20в345819 0.0 10211033
13:00+23вюв44419 0.0 10201497
16:00+23в55398 0.0 10181579
19:00+18с115021 0.0 101911
22:00+16ссз125721 0.0 102112
7 октября, пт
пт701:00+15сз226464 0.0 102213
04:00+15в237190 0.0 1022131
07:00+14в239097 0.0 1023259
10:00+15в249090 0.4 1023466
13:00+17в346667 0.4 1022992
16:00+19вюв455490 0.6 10211529
19:00+16в257271 0.1 1022213
22:00+15всв2578100 0.3 1023278
8 октября, сб
сб801:00+15всв2581100 0.3 1024387
04:00+14вюв268895 0.6 1023479
07:00+13в259589 0.3 1023362
10:00+13в358986 0.6 1024507
13:00+16вюв357573 0.4 1022818
16:00+17вюв336292 0.6 10201232
19:00+16всв116983 0.0 102017
22:00+15с117183 0.0 102017